Weather in Pogorelovo

Russia / Vologda Oblast     59°42′22″N   42°02′17″E
В апреле 2022 года жителям России запретили посещать сайт meteo.paraplan.net по решению Генеральной прокуратуры. Аудитория сайта уменьшилась в 10 раз. Владельцы сайта не видят смысла в поддержке погодного сервера в таких условиях. Сайт будет закрыт в октябре.
temp.,
°C
wind,
m/s
gust,
m/s
humid.,
%
clouds,
%
prec.,
mm/h
press.,
hPa
HPBL,
m
4 october, tue
tue400:00+12sse5118795 0.1 1008904
03:00+8sse411882 0.3 1012557
06:00+7se312940 0.0 1013418
09:00+10sse413854 0.0 1014635
12:00+13sse51272100 0.0 10141172
15:00+14sse5116737 0.0 10141407
18:00+11se4127946 0.0 1015565
21:00+10se41289100 0.1 1015653
5 october, wed
wed500:00+10se41191100 0.1 1014663
03:00+10ese41092100 0.3 1013525
06:00+9se4119395 0.4 1012589
09:00+9se41093100 0.4 1012683
12:00+10sse468498 0.2 1012833
15:00+10sw2488100 1.1 1012362
18:00+8ssw1390100 0.1 101391
21:00+8sse1192100 0.3 101339
6 october, thu
thu600:00+7ese1191100 0.3 101317
03:00+7nnw1192100 0.3 101332
06:00+7nnw1293100 0.1 101372
09:00+7nw1392100 0.1 1013171
12:00+9wnw2382100 0.0 1013423
15:00+10wsw24716 0.1 1013871
18:00+6ssw26905 0.0 1013109
21:00+5ssw3119160 0.0 1012368
7 october, fri
fri700:00+6ssw4138878 0.1 1009560
03:00+7ssw41393100 0.2 1006687
06:00+9wsw4129357 2.0 1006766
09:00+9w51280100 2.1 10081336
12:00+9wsw51289100 0.1 10091028
15:00+10w6138062 0.4 10091331
18:00+8w5138867 0.1 1011798
21:00+9w613775 0.4 10131111
8 october, sat
sat800:00+8w51183100 0.0 10151074
03:00+8wsw3108694 0.0 1016480
06:00+5sw31097100 0.0 1017304
09:00+8sw41193100 0.0 1016500
12:00+9sw41189100 0.0 1016702
15:00+11sw4107966 0.0 1015864
18:00+9ssw4128495 0.0 1014616
21:00+9ssw51389100 0.0 1013692